BM1CKC-10 Weather Reports


Display with metric or nautical units.
time (UTC)temp
F
wind
direction
speed
MPH
gust
MPH
rain 1hr
in
rain 24hr
in
rain mn
in
humidity
%
barometer
mb
20260509063011 81 0.0 0.0 0.00 0.00 0.00 61 1009.9
20260509060958 80 0.0 0.0 0.00 0.00 0.00 62 1010.5
20260509054958 80 0.0 0.0 0.00 0.00 0.00 62 1010.7
20260509052959 80 0.0 0.0 0.00 0.00 0.00 62 1010.8
20260509050959 81 0.0 0.0 0.00 0.00 0.00 62 1011.2
20260509044959 80 0.0 0.0 0.00 0.00 0.00 62 1011.4
20260509042959 81 0.0 0.0 0.00 0.00 0.00 61 1011.5
20260509040959 81 0.0 0.0 0.00 0.00 0.00 60 1011.5
20260509034958 81 0.0 0.0 0.00 0.00 0.00 60 1012.1
20260509032958 82 0.0 0.0 0.00 0.00 0.00 59 1012.1
20260509030958 81 0.0 0.0 0.00 0.00 0.00 61 1012.3
20260509024958 81 0.0 0.0 0.00 0.00 0.00 60 1012.4
20260509022958 81 0.0 0.0 0.00 0.00 0.00 60 1012.4
20260509020958 82 0.0 0.0 0.00 0.00 0.00 59 1012.5
20260509014958 82 0.0 0.0 0.00 0.00 0.00 58 1012.6
20260509012958 81 0.0 0.0 0.00 0.00 0.00 59 1012.6
20260509010958 80 0.0 0.0 0.00 0.00 0.00 62 1012.6
20260509004958 80 0.0 0.0 0.00 0.00 0.00 62 1012.3
20260509002958 80 0.0 0.0 0.00 0.00 0.00 62 1012.0
20260509000958 80 0.0 0.0 0.00 0.00 0.00 62 1011.8
20260508234959 80 0.0 0.0 0.00 0.00 0.00 62 1011.5
20260508232959 80 0.0 0.0 0.00 0.00 0.00 62 1011.5
20260508230959 79 0.0 0.0 0.00 0.00 0.00 63 1011.5
20260508224959 78 0.0 0.0 0.00 0.00 0.00 64 1011.2
20260508222958 77 0.0 0.0 0.00 0.00 0.00 65 1011.2
20260508220959 77 0.0 0.0 0.00 0.00 0.00 66 1010.8
20260508214959 77 0.0 0.0 0.00 0.00 0.00 65 1011.0
20260508212958 76 0.0 0.0 0.00 0.00 0.00 66 1010.6
20260508210959 76 0.0 0.0 0.00 0.00 0.00 68 1010.4
20260508204958 76 0.0 0.0 0.00 0.00 0.00 67 1010.0
20260508202959 76 0.0 0.0 0.00 0.00 0.00 65 1009.9
20260508200958 77 0.0 0.0 0.00 0.00 0.00 64 1009.9
20260508195008 76 0.0 0.0 0.00 0.00 0.00 66 1009.4
20260508192958 76 0.0 0.0 0.00 0.00 0.00 66 1009.5
20260508190959 76 0.0 0.0 0.00 0.00 0.00 65 1009.6
20260508184959 77 0.0 0.0 0.00 0.00 0.00 65 1009.4
20260508182959 76 0.0 0.0 0.00 0.00 0.00 66 1009.6
20260508180959 76 0.0 0.0 0.00 0.00 0.00 64 1009.7
20260508174959 77 0.0 0.0 0.00 0.00 0.00 65 1009.9
20260508172958 77 0.0 0.0 0.00 0.00 0.00 62 1009.9
20260508170959 77 0.0 0.0 0.00 0.00 0.00 64 1010.3
20260508164959 77 0.0 0.0 0.00 0.00 0.00 61 1010.5
20260508162959 77 0.0 0.0 0.00 0.00 0.00 61 1010.7
20260508160958 78 0.0 0.0 0.00 0.00 0.00 60 1010.8
20260508154958 77 0.0 0.0 0.00 0.00 0.00 59 1010.7
20260508152959 77 0.0 0.0 0.00 0.00 0.00 59 1011.2
20260508150959 78 0.0 0.0 0.00 0.00 0.00 59 1011.3
20260508144959 78 0.0 0.0 0.00 0.00 0.00 56 1011.3
20260508143006 81 0.0 0.0 0.00 0.00 0.00 56 1011.3
20260508140958 82 0.0 0.0 0.00 0.00 0.00 59 1011.5
20260508134958 82 0.0 0.0 0.00 0.00 0.00 60 1011.5
20260508132958 82 0.0 0.0 0.00 0.00 0.00 59 1011.6
20260508130958 82 0.0 0.0 0.00 0.00 0.00 59 1011.4
20260508124958 82 0.0 0.0 0.00 0.00 0.00 60 1011.3
20260508122958 82 0.0 0.0 0.00 0.00 0.00 59 1011.1
20260508120958 83 0.0 0.0 0.00 0.00 0.00 59 1010.8
20260508114959 83 0.0 0.0 0.00 0.00 0.00 59 1010.5
20260508112958 83 0.0 0.0 0.00 0.00 0.00 60 1010.5
20260508110958 82 0.0 0.0 0.00 0.00 0.00 60 1010.3
20260508104958 82 0.0 0.0 0.00 0.00 0.00 60 1010.1
20260508102959 82 0.0 0.0 0.00 0.00 0.00 61 1009.9
20260508100959 82 0.0 0.0 0.00 0.00 0.00 61 1009.6
20260508094958 82 0.0 0.0 0.00 0.00 0.00 61 1009.4
20260508092958 82 0.0 0.0 0.00 0.00 0.00 62 1009.3
20260508090958 82 0.0 0.0 0.00 0.00 0.00 62 1009.1
20260508084958 82 0.0 0.0 0.00 0.00 0.00 61 1008.9
20260508082958 82 0.0 0.0 0.00 0.00 0.00 61 1008.7
20260508080958 83 0.0 0.0 0.00 0.00 0.00 59 1008.3
20260508074958 82 0.0 0.0 0.00 0.00 0.00 60 1008.1
20260508072959 83 0.0 0.0 0.00 0.00 0.00 59 1008.1
20260508071013 82 0.0 0.0 0.00 0.00 0.00 61 1008.0
20260508064958 82 0.0 0.0 0.00 0.00 0.00 61 1008.0